Location: Unspecified
(52.4292°N, 19.3359°E)
Time: 00:08:46
(UTC+02:00)

N. Korean satellite - Visible Passes

Search period start: 27 March 2023 00:00
Search period end: 06 April 2023 00:00
Orbit: 392 x 417 km, 97.3° (Epoch: 26 March)

Date Brightness Start Highest point End Pass type
(mag) Time Alt. Az. Time Alt. Az. Time Alt. Az.
28 Mar 9.3 05:28:21 10° NE 05:30:33 17° E 05:32:42 10° SE visible
30 Mar 9.5 05:22:13 10° NE 05:24:04 15° E 05:25:54 10° SE visible
01 Apr 9.7 05:15:43 10° ENE 05:17:04 12° E 05:18:24 10° ESE visible
